Terminal Aerodrome Forecast
Issued by NWS

Home | Current Version | Previous Version | Text Only | Print | Product List | Glossary On
Versions: 1 2 3 4 5 6 7 8 9 10 11 12 13 14 15 16 17 18
000
FTUS42 KMLB 040539
TAFTIX
TAF
KTIX 040539Z 0406/0506 13003KT P6SM FEW005
     FM040900 00000KT 3SM BR SCT003 OVC010
      TEMPO 0409/0412 BKN003
     FM041400 16011KT P6SM SCT020 SCT035
      AMD NOT SKED TIL 041200=

USA.gov is the U.S. government's official web portal to all federal, state and local government web resources and services.